Вернуться в каталог

ONEWEB-0599

АктивенСвязьPO
NORAD 55155·PAYLOAD·🇬🇧 United Kingdom

Запущен Jan 10, 2023 с Cape Canaveral Space Force Station

Loading…

Ближайшие Пролёты (ближайшие 24 часа)

TLE

СвежийSource: CelesTrak SupGP

Эпоха: Sep 14, 2026, 12:01 UTC

1 55155C 23004R   26257.50084907 -.00000036  00000+0 -92869-4 0  2570
2 55155  87.9206 348.1273 0001895  94.9932  14.8095 13.17649645    16

Отслеживайте ONEWEB-0599 в реальном времени с AllMySat

Download on the App Store